contact:dominique.lefevre@mio.osupytheas.fr, maurice.libes@osupytheas.fr, didier.mallarino@osupytheas.fr
Project:EMSO http://www.emso-fr.org/EMSO-France
Depth: 2436.0 m
Title:EMSO Ligure Ouest : Data MII capteur MICROCAT
DateTime_Computer,Latitude,Longitude,Temperature,Conductivity,Pressure,DateTime_Instrument
DateTime_Computer,Latitude,Longitude,degC,S m-1,dbar,DateTime_Instrument
2022-09-20T00:00:04Z,42.805,6.029,13.3011,4.60062,2470.577,2022-9-20T02:01:57Z
2022-09-20T00:03:08Z,42.805,6.029,13.3010,4.60059,2470.624,2022-9-20T02:05:00Z
2022-09-20T00:06:11Z,42.805,6.029,13.3012,4.60062,2470.6,2022-9-20T02:08:03Z
2022-09-20T00:09:14Z,42.805,6.029,13.3010,4.60057,2470.577,2022-9-20T02:11:07Z
2022-09-20T00:12:17Z,42.805,6.029,13.3012,4.60059,2470.614,2022-9-20T02:14:10Z
2022-09-20T00:15:20Z,42.805,6.029,13.3015,4.60061,2470.577,2022-9-20T02:17:13Z
2022-09-20T00:18:23Z,42.805,6.029,13.3006,4.60064,2470.6,2022-9-20T02:20:16Z
2022-09-20T00:21:26Z,42.805,6.029,13.3015,4.60070,2470.6,2022-9-20T02:23:19Z
2022-09-20T00:24:29Z,42.805,6.029,13.3011,4.60068,2470.624,2022-9-20T02:26:22Z
2022-09-20T00:27:33Z,42.805,6.029,13.3013,4.60067,2470.6,2022-9-20T02:29:25Z
2022-09-20T00:30:36Z,42.805,6.029,13.3012,4.60067,2470.577,2022-9-20T02:32:28Z
2022-09-20T00:33:39Z,42.805,6.029,13.3012,4.60064,2470.6,2022-9-20T02:35:32Z
2022-09-20T00:36:42Z,42.805,6.029,13.3009,4.60062,2470.614,2022-9-20T02:38:35Z
2022-09-20T00:39:45Z,42.805,6.029,13.3009,4.60066,2470.614,2022-9-20T02:41:38Z
2022-09-20T00:42:48Z,42.805,6.029,13.3011,4.60061,2470.614,2022-9-20T02:44:41Z
2022-09-20T00:45:51Z,42.805,6.029,13.3009,4.60057,2470.624,2022-9-20T02:47:44Z
2022-09-20T00:48:54Z,42.805,6.029,13.3011,4.60062,2470.6,2022-9-20T02:50:47Z
2022-09-20T00:51:57Z,42.805,6.029,13.3018,4.60056,2470.614,2022-9-20T02:53:50Z
2022-09-20T00:55:01Z,42.805,6.029,13.3014,4.60059,2470.6,2022-9-20T02:56:53Z
2022-09-20T00:58:04Z,42.805,6.029,13.3009,4.60057,2470.577,2022-9-20T02:59:57Z
2022-09-20T01:01:07Z,42.805,6.029,13.3014,4.60055,2470.586,2022-9-20T03:03:00Z
2022-09-20T01:04:10Z,42.805,6.029,13.3013,4.60056,2470.591,2022-9-20T03:06:03Z
2022-09-20T01:07:13Z,42.805,6.029,13.3016,4.60056,2470.577,2022-9-20T03:09:06Z
2022-09-20T01:10:16Z,42.805,6.029,13.3017,4.60054,2470.6,2022-9-20T03:12:09Z
2022-09-20T01:13:19Z,42.805,6.029,13.3011,4.60057,2470.6,2022-9-20T03:15:12Z
2022-09-20T01:16:22Z,42.805,6.029,13.3015,4.60064,2470.6,2022-9-20T03:18:15Z
2022-09-20T01:19:26Z,42.805,6.029,13.3013,4.60054,2470.624,2022-9-20T03:21:18Z
2022-09-20T01:22:29Z,42.805,6.029,13.3010,4.60056,2470.624,2022-9-20T03:24:22Z
2022-09-20T01:25:32Z,42.805,6.029,13.3013,4.60053,2470.6,2022-9-20T03:27:25Z
2022-09-20T01:28:35Z,42.805,6.029,13.3013,4.60061,2470.614,2022-9-20T03:30:28Z
2022-09-20T01:31:38Z,42.805,6.029,13.3013,4.60062,2470.624,2022-9-20T03:33:31Z
2022-09-20T01:34:41Z,42.805,6.029,13.3010,4.60053,2470.6,2022-9-20T03:36:34Z
2022-09-20T01:37:44Z,42.805,6.029,13.3011,4.60057,2470.591,2022-9-20T03:39:37Z
2022-09-20T01:40:47Z,42.805,6.029,13.3009,4.60052,2470.586,2022-9-20T03:42:40Z
2022-09-20T01:43:51Z,42.805,6.029,13.3008,4.60055,2470.637,2022-9-20T03:45:43Z
2022-09-20T01:46:54Z,42.805,6.029,13.3013,4.60054,2470.614,2022-9-20T03:48:46Z
2022-09-20T01:49:57Z,42.805,6.029,13.3011,4.60052,2470.6,2022-9-20T03:51:50Z
2022-09-20T01:53:00Z,42.805,6.029,13.3010,4.60052,2470.6,2022-9-20T03:54:53Z
2022-09-20T01:56:03Z,42.805,6.029,13.3011,4.60054,2470.6,2022-9-20T03:57:56Z
2022-09-20T01:59:06Z,42.805,6.029,13.3014,4.60058,2470.6,2022-9-20T04:00:59Z
2022-09-20T02:02:09Z,42.805,6.029,13.3010,4.60053,2470.614,2022-9-20T04:04:02Z
2022-09-20T02:05:12Z,42.805,6.029,13.3010,4.60053,2470.624,2022-9-20T04:07:05Z
2022-09-20T02:08:16Z,42.805,6.029,13.3014,4.60052,2470.614,2022-9-20T04:10:08Z
2022-09-20T02:11:19Z,42.805,6.029,13.3011,4.60052,2470.6,2022-9-20T04:13:11Z
2022-09-20T02:14:22Z,42.805,6.029,13.3013,4.60052,2470.624,2022-9-20T04:16:15Z
2022-09-20T02:17:25Z,42.805,6.029,13.3011,4.60055,2470.6,2022-9-20T04:19:18Z
2022-09-20T02:20:28Z,42.805,6.029,13.3011,4.60053,2470.6,2022-9-20T04:22:21Z
2022-09-20T02:23:31Z,42.805,6.029,13.3012,4.60053,2470.6,2022-9-20T04:25:24Z
2022-09-20T02:26:34Z,42.805,6.029,13.3010,4.60052,2470.6,2022-9-20T04:28:27Z
2022-09-20T02:29:37Z,42.805,6.029,13.3011,4.60052,2470.577,2022-9-20T04:31:30Z
2022-09-20T02:32:41Z,42.805,6.029,13.3008,4.60053,2470.624,2022-9-20T04:34:33Z
2022-09-20T02:35:44Z,42.805,6.029,13.3011,4.60052,2470.6,2022-9-20T04:37:36Z
2022-09-20T02:38:47Z,42.805,6.029,13.3012,4.60055,2470.591,2022-9-20T04:40:40Z
2022-09-20T02:41:50Z,42.805,6.029,13.3006,4.60053,2470.646,2022-9-20T04:43:43Z
2022-09-20T02:44:53Z,42.805,6.029,13.3009,4.60053,2470.6,2022-9-20T04:46:46Z
2022-09-20T02:47:56Z,42.805,6.029,13.3011,4.60054,2470.61,2022-9-20T04:49:49Z
2022-09-20T02:50:59Z,42.805,6.029,13.3014,4.60053,2470.591,2022-9-20T04:52:52Z
2022-09-20T02:54:02Z,42.805,6.029,13.3011,4.60058,2470.614,2022-9-20T04:55:55Z
2022-09-20T02:57:06Z,42.805,6.029,13.3013,4.60053,2470.614,2022-9-20T04:58:58Z
2022-09-20T03:00:09Z,42.805,6.029,13.3009,4.60054,2470.624,2022-9-20T05:02:01Z
2022-09-20T03:03:12Z,42.805,6.029,13.3010,4.60053,2470.624,2022-9-20T05:05:05Z
2022-09-20T03:06:15Z,42.805,6.029,13.3010,4.60052,2470.624,2022-9-20T05:08:08Z
2022-09-20T03:09:18Z,42.805,6.029,13.3011,4.60052,2470.6,2022-9-20T05:11:11Z
2022-09-20T03:12:21Z,42.805,6.029,13.3012,4.60052,2470.6,2022-9-20T05:14:14Z
2022-09-20T03:15:24Z,42.805,6.029,13.3014,4.60053,2470.6,2022-9-20T05:17:17Z
2022-09-20T03:18:27Z,42.805,6.029,13.3008,4.60053,2470.591,2022-9-20T05:20:20Z
2022-09-20T03:21:30Z,42.805,6.029,13.3014,4.60057,2470.637,2022-9-20T05:23:23Z
2022-09-20T03:24:34Z,42.805,6.029,13.3012,4.60053,2470.624,2022-9-20T05:26:26Z
2022-09-20T03:27:37Z,42.805,6.029,13.3009,4.60054,2470.614,2022-9-20T05:29:30Z
2022-09-20T03:30:40Z,42.805,6.029,13.3012,4.60053,2470.577,2022-9-20T05:32:33Z
2022-09-20T03:33:43Z,42.805,6.029,13.3011,4.60056,2470.624,2022-9-20T05:35:36Z
2022-09-20T03:36:46Z,42.805,6.029,13.3011,4.60053,2470.577,2022-9-20T05:38:39Z
2022-09-20T03:39:49Z,42.805,6.029,13.3010,4.60053,2470.577,2022-9-20T05:41:42Z
2022-09-20T03:42:52Z,42.805,6.029,13.3009,4.60055,2470.6,2022-9-20T05:44:45Z
2022-09-20T03:45:55Z,42.805,6.029,13.3014,4.60051,2470.6,2022-9-20T05:47:48Z
2022-09-20T03:48:59Z,42.805,6.029,13.3009,4.60054,2470.646,2022-9-20T05:50:51Z
2022-09-20T03:52:02Z,42.805,6.029,13.3009,4.60052,2470.624,2022-9-20T05:53:55Z
2022-09-20T03:55:05Z,42.805,6.029,13.3011,4.60059,2470.6,2022-9-20T05:56:58Z
2022-09-20T03:58:08Z,42.805,6.029,13.3012,4.60053,2470.577,2022-9-20T06:00:01Z
2022-09-20T04:01:11Z,42.805,6.029,13.3011,4.60054,2470.614,2022-9-20T06:03:04Z
2022-09-20T04:04:14Z,42.805,6.029,13.3012,4.60054,2470.624,2022-9-20T06:06:07Z
2022-09-20T04:07:17Z,42.805,6.029,13.3012,4.60054,2470.591,2022-9-20T06:09:10Z
2022-09-20T04:10:20Z,42.805,6.029,13.3012,4.60057,2470.614,2022-9-20T06:12:13Z
2022-09-20T04:13:24Z,42.805,6.029,13.3009,4.60054,2470.637,2022-9-20T06:15:16Z
2022-09-20T04:16:27Z,42.805,6.029,13.3012,4.60053,2470.624,2022-9-20T06:18:19Z
2022-09-20T04:19:30Z,42.805,6.029,13.3014,4.60054,2470.6,2022-9-20T06:21:23Z
2022-09-20T04:22:33Z,42.805,6.029,13.3009,4.60057,2470.6,2022-9-20T06:24:26Z
2022-09-20T04:25:36Z,42.805,6.029,13.3014,4.60056,2470.6,2022-9-20T06:27:29Z
2022-09-20T04:28:39Z,42.805,6.029,13.3010,4.60056,2470.624,2022-9-20T06:30:32Z
2022-09-20T04:31:42Z,42.805,6.029,13.3011,4.60062,2470.591,2022-9-20T06:33:35Z
2022-09-20T04:34:45Z,42.805,6.029,13.3011,4.60061,2470.6,2022-9-20T06:36:38Z
2022-09-20T04:37:48Z,42.805,6.029,13.3013,4.60055,2470.6,2022-9-20T06:39:41Z
2022-09-20T04:40:52Z,42.805,6.029,13.3015,4.60054,2470.6,2022-9-20T06:42:44Z
2022-09-20T04:43:55Z,42.805,6.029,13.3012,4.60054,2470.567,2022-9-20T06:45:48Z
2022-09-20T04:46:58Z,42.805,6.029,13.3010,4.60055,2470.591,2022-9-20T06:48:51Z
2022-09-20T04:50:01Z,42.805,6.029,13.3011,4.60056,2470.577,2022-9-20T06:51:54Z
2022-09-20T04:53:04Z,42.805,6.029,13.3011,4.60054,2470.6,2022-9-20T06:54:57Z
2022-09-20T04:56:07Z,42.805,6.029,13.3014,4.60058,2470.577,2022-9-20T06:58:00Z
2022-09-20T04:59:10Z,42.805,6.029,13.3008,4.60061,2470.577,2022-9-20T07:01:03Z
2022-09-20T05:02:13Z,42.805,6.029,13.3009,4.60056,2470.6,2022-9-20T07:04:06Z
2022-09-20T05:05:17Z,42.805,6.029,13.3013,4.60057,2470.577,2022-9-20T07:07:09Z
2022-09-20T05:08:20Z,42.805,6.029,13.3008,4.60058,2470.577,2022-9-20T07:10:12Z
2022-09-20T05:11:23Z,42.805,6.029,13.3013,4.60053,2470.591,2022-9-20T07:13:16Z
2022-09-20T05:14:26Z,42.805,6.029,13.3009,4.60057,2470.586,2022-9-20T07:16:19Z
2022-09-20T05:17:29Z,42.805,6.029,13.3013,4.60059,2470.6,2022-9-20T07:19:22Z
2022-09-20T05:20:32Z,42.805,6.029,13.3010,4.60056,2470.591,2022-9-20T07:22:25Z
2022-09-20T05:23:35Z,42.805,6.029,13.3010,4.60056,2470.591,2022-9-20T07:25:28Z
2022-09-20T05:26:38Z,42.805,6.029,13.3008,4.60056,2470.614,2022-9-20T07:28:31Z
2022-09-20T05:29:42Z,42.805,6.029,13.3014,4.60056,2470.591,2022-9-20T07:31:34Z
2022-09-20T05:32:45Z,42.805,6.029,13.3011,4.60055,2470.577,2022-9-20T07:34:37Z
2022-09-20T05:35:48Z,42.805,6.029,13.3011,4.60056,2470.6,2022-9-20T07:37:41Z
2022-09-20T05:38:51Z,42.805,6.029,13.3015,4.60056,2470.577,2022-9-20T07:40:44Z
2022-09-20T05:41:54Z,42.805,6.029,13.3015,4.60056,2470.624,2022-9-20T07:43:47Z
2022-09-20T05:44:57Z,42.805,6.029,13.3011,4.60057,2470.6,2022-9-20T07:46:50Z
2022-09-20T05:48:00Z,42.805,6.029,13.3014,4.60055,2470.591,2022-9-20T07:49:53Z
2022-09-20T05:51:03Z,42.805,6.029,13.3021,4.60059,2470.591,2022-9-20T07:52:56Z
2022-09-20T05:54:07Z,42.805,6.029,13.3013,4.60054,2470.553,2022-9-20T07:55:59Z
2022-09-20T05:57:10Z,42.805,6.029,13.3011,4.60054,2470.577,2022-9-20T07:59:02Z
2022-09-20T06:00:13Z,42.805,6.029,13.3019,4.60055,2470.591,2022-9-20T08:02:06Z
2022-09-20T06:03:16Z,42.805,6.029,13.3015,4.60060,2470.591,2022-9-20T08:05:09Z
2022-09-20T06:06:19Z,42.805,6.029,13.3011,4.60057,2470.577,2022-9-20T08:08:12Z
2022-09-20T06:09:22Z,42.805,6.029,13.3012,4.60056,2470.591,2022-9-20T08:11:15Z
2022-09-20T06:12:25Z,42.805,6.029,13.3010,4.60054,2470.591,2022-9-20T08:14:18Z
2022-09-20T06:15:28Z,42.805,6.029,13.3014,4.60059,2470.577,2022-9-20T08:17:21Z
2022-09-20T06:18:31Z,42.805,6.029,13.3021,4.60057,2470.614,2022-9-20T08:20:24Z
2022-09-20T06:21:35Z,42.805,6.029,13.3031,4.60082,2470.577,2022-9-20T08:23:27Z
2022-09-20T06:24:38Z,42.805,6.029,13.3041,4.60079,2470.591,2022-9-20T08:26:31Z
2022-09-20T06:27:41Z,42.805,6.029,13.3032,4.60073,2470.553,2022-9-20T08:29:34Z
2022-09-20T06:30:44Z,42.805,6.029,13.3052,4.60057,2470.577,2022-9-20T08:32:37Z
2022-09-20T06:33:47Z,42.805,6.029,13.3036,4.60088,2470.577,2022-9-20T08:35:40Z
2022-09-20T06:36:50Z,42.805,6.029,13.3048,4.60072,2470.53,2022-9-20T08:38:43Z
2022-09-20T06:39:53Z,42.805,6.029,13.3035,4.60064,2470.553,2022-9-20T08:41:46Z
2022-09-20T06:42:56Z,42.805,6.029,13.3044,4.60109,2470.544,2022-9-20T08:44:49Z
2022-09-20T06:46:00Z,42.805,6.029,13.3055,4.60079,2470.6,2022-9-20T08:47:52Z
2022-09-20T06:49:03Z,42.805,6.029,13.3043,4.60122,2470.567,2022-9-20T08:50:56Z
2022-09-20T06:52:06Z,42.805,6.029,13.3039,4.60116,2470.591,2022-9-20T08:53:59Z
2022-09-20T06:55:09Z,42.805,6.029,13.3035,4.60122,2470.577,2022-9-20T08:57:02Z
2022-09-20T06:58:12Z,42.805,6.029,13.3027,4.60121,2470.567,2022-9-20T09:00:05Z
2022-09-20T07:01:15Z,42.805,6.029,13.3034,4.60127,2470.591,2022-9-20T09:03:08Z
2022-09-20T07:04:18Z,42.805,6.029,13.3034,4.60113,2470.577,2022-9-20T09:06:11Z
2022-09-20T07:07:21Z,42.805,6.029,13.3039,4.60135,2470.577,2022-9-20T09:09:14Z
2022-09-20T07:10:25Z,42.805,6.029,13.3056,4.60097,2470.567,2022-9-20T09:12:17Z
2022-09-20T07:13:28Z,42.805,6.029,13.3043,4.60099,2470.577,2022-9-20T09:15:20Z
2022-09-20T07:16:31Z,42.805,6.029,13.3035,4.60095,2470.567,2022-9-20T09:18:24Z
2022-09-20T07:19:34Z,42.805,6.029,13.3031,4.60121,2470.567,2022-9-20T09:21:27Z
2022-09-20T07:22:37Z,42.805,6.029,13.3033,4.60135,2470.544,2022-9-20T09:24:30Z
2022-09-20T07:25:40Z,42.805,6.029,13.3043,4.60144,2470.553,2022-9-20T09:27:33Z
2022-09-20T07:28:43Z,42.805,6.029,13.3033,4.60132,2470.567,2022-9-20T09:30:36Z
2022-09-20T07:31:46Z,42.805,6.029,13.3029,4.60126,2470.53,2022-9-20T09:33:39Z
2022-09-20T07:34:49Z,42.805,6.029,13.3046,4.60129,2470.591,2022-9-20T09:36:42Z
2022-09-20T07:37:53Z,42.805,6.029,13.3030,4.60130,2470.553,2022-9-20T09:39:45Z
2022-09-20T07:40:56Z,42.805,6.029,13.3033,4.60114,2470.544,2022-9-20T09:42:49Z
2022-09-20T07:43:59Z,42.805,6.029,13.3044,4.60133,2470.567,2022-9-20T09:45:52Z
2022-09-20T07:47:02Z,42.805,6.029,13.3029,4.60104,2470.553,2022-9-20T09:48:55Z
2022-09-20T07:50:05Z,42.805,6.029,13.3028,4.60140,2470.553,2022-9-20T09:51:58Z
2022-09-20T07:53:08Z,42.805,6.029,13.3029,4.60129,2470.591,2022-9-20T09:55:01Z
2022-09-20T07:56:11Z,42.805,6.029,13.3034,4.60129,2470.567,2022-9-20T09:58:04Z
2022-09-20T07:59:14Z,42.805,6.029,13.3044,4.60129,2470.567,2022-9-20T10:01:07Z
2022-09-20T08:02:18Z,42.805,6.029,13.3035,4.60134,2470.567,2022-9-20T10:04:10Z
2022-09-20T08:05:21Z,42.805,6.029,13.3038,4.60130,2470.553,2022-9-20T10:07:14Z
2022-09-20T08:08:24Z,42.805,6.029,13.3036,4.60135,2470.53,2022-9-20T10:10:17Z
2022-09-20T08:11:27Z,42.805,6.029,13.3043,4.60166,2470.567,2022-9-20T10:13:20Z
2022-09-20T08:14:30Z,42.805,6.029,13.3031,4.60142,2470.577,2022-9-20T10:16:23Z
2022-09-20T08:17:33Z,42.805,6.029,13.3045,4.60150,2470.53,2022-9-20T10:19:26Z
2022-09-20T08:20:36Z,42.805,6.029,13.3046,4.60127,2470.577,2022-9-20T10:22:29Z
2022-09-20T08:23:39Z,42.805,6.029,13.3033,4.60160,2470.553,2022-9-20T10:25:32Z
2022-09-20T08:26:43Z,42.805,6.029,13.3058,4.60112,2470.577,2022-9-20T10:28:35Z
2022-09-20T08:29:46Z,42.805,6.029,13.3067,4.60140,2470.567,2022-9-20T10:31:39Z
2022-09-20T08:32:49Z,42.805,6.029,13.3043,4.60134,2470.567,2022-9-20T10:34:42Z
2022-09-20T08:35:52Z,42.805,6.029,13.3048,4.60114,2470.567,2022-9-20T10:37:45Z
2022-09-20T08:38:55Z,42.805,6.029,13.3035,4.60111,2470.567,2022-9-20T10:40:48Z
2022-09-20T08:41:58Z,42.805,6.029,13.3034,4.60140,2470.544,2022-9-20T10:43:51Z
2022-09-20T08:45:01Z,42.805,6.029,13.3043,4.60124,2470.539,2022-9-20T10:46:54Z
2022-09-20T08:48:04Z,42.805,6.029,13.3033,4.60116,2470.553,2022-9-20T10:49:57Z
2022-09-20T08:51:08Z,42.805,6.029,13.3054,4.60148,2470.553,2022-9-20T10:53:00Z
2022-09-20T08:54:11Z,42.805,6.029,13.3043,4.60125,2470.591,2022-9-20T10:56:04Z
2022-09-20T08:57:14Z,42.805,6.029,13.3036,4.60129,2470.567,2022-9-20T10:59:07Z
2022-09-20T09:00:17Z,42.805,6.029,13.3040,4.60112,2470.553,2022-9-20T11:02:10Z
2022-09-20T09:03:20Z,42.805,6.029,13.3036,4.60123,2470.577,2022-9-20T11:05:13Z
2022-09-20T09:06:23Z,42.805,6.029,13.3039,4.60121,2470.567,2022-9-20T11:08:16Z
2022-09-20T09:09:26Z,42.805,6.029,13.3041,4.60135,2470.553,2022-9-20T11:11:19Z
2022-09-20T09:12:29Z,42.805,6.029,13.3046,4.60112,2470.544,2022-9-20T11:14:22Z
2022-09-20T09:15:33Z,42.805,6.029,13.3026,4.60165,2470.567,2022-9-20T11:17:25Z
2022-09-20T09:18:36Z,42.805,6.029,13.3051,4.60140,2470.53,2022-9-20T11:20:29Z
2022-09-20T09:21:39Z,42.805,6.029,13.3044,4.60119,2470.53,2022-9-20T11:23:32Z
2022-09-20T09:24:42Z,42.805,6.029,13.3029,4.60131,2470.544,2022-9-20T11:26:35Z
2022-09-20T09:27:45Z,42.805,6.029,13.3042,4.60138,2470.567,2022-9-20T11:29:38Z
2022-09-20T09:30:48Z,42.805,6.029,13.3034,4.60114,2470.507,2022-9-20T11:32:41Z
2022-09-20T09:33:51Z,42.805,6.029,13.3029,4.60123,2470.544,2022-9-20T11:35:44Z
2022-09-20T09:36:54Z,42.805,6.029,13.3044,4.60125,2470.544,2022-9-20T11:38:47Z
2022-09-20T09:39:58Z,42.805,6.029,13.3041,4.60098,2470.553,2022-9-20T11:41:50Z
2022-09-20T09:43:01Z,42.805,6.029,13.3025,4.60127,2470.507,2022-9-20T11:44:54Z
2022-09-20T09:46:04Z,42.805,6.029,13.3033,4.60137,2470.53,2022-9-20T11:47:57Z
2022-09-20T09:49:07Z,42.805,6.029,13.3036,4.60097,2470.53,2022-9-20T11:51:00Z
2022-09-20T09:52:10Z,42.805,6.029,13.3041,4.60120,2470.544,2022-9-20T11:54:03Z
2022-09-20T09:55:13Z,42.805,6.029,13.3034,4.60152,2470.567,2022-9-20T11:57:06Z
2022-09-20T09:58:16Z,42.805,6.029,13.3030,4.60154,2470.544,2022-9-20T12:00:09Z
2022-09-20T10:01:19Z,42.805,6.029,13.3039,4.60152,2470.6,2022-9-20T12:03:12Z
2022-09-20T10:04:23Z,42.805,6.029,13.3029,4.60137,2470.553,2022-9-20T12:06:15Z
2022-09-20T10:07:26Z,42.805,6.029,13.3027,4.60131,2470.544,2022-9-20T12:09:19Z
2022-09-20T10:10:29Z,42.805,6.029,13.3034,4.60149,2470.53,2022-9-20T12:12:22Z
2022-09-20T10:13:32Z,42.805,6.029,13.3043,4.60130,2470.544,2022-9-20T12:15:25Z
2022-09-20T10:16:35Z,42.805,6.029,13.3044,4.60127,2470.577,2022-9-20T12:18:28Z
2022-09-20T10:19:38Z,42.805,6.029,13.3048,4.60152,2470.553,2022-9-20T12:21:31Z
2022-09-20T10:22:41Z,42.805,6.029,13.3054,4.60127,2470.567,2022-9-20T12:24:34Z
2022-09-20T10:25:44Z,42.805,6.029,13.3042,4.60085,2470.567,2022-9-20T12:27:37Z
2022-09-20T10:28:48Z,42.805,6.029,13.3055,4.60111,2470.553,2022-9-20T12:30:40Z
2022-09-20T10:31:51Z,42.805,6.029,13.3058,4.60120,2470.553,2022-9-20T12:33:44Z
2022-09-20T10:34:54Z,42.805,6.029,13.3047,4.60126,2470.591,2022-9-20T12:36:47Z
2022-09-20T10:37:57Z,42.805,6.029,13.3057,4.60122,2470.544,2022-9-20T12:39:50Z
2022-09-20T10:41:00Z,42.805,6.029,13.3054,4.60109,2470.567,2022-9-20T12:42:53Z
2022-09-20T10:44:03Z,42.805,6.029,13.3062,4.60147,2470.577,2022-9-20T12:45:56Z
2022-09-20T10:47:06Z,42.805,6.029,13.3057,4.60129,2470.553,2022-9-20T12:48:59Z
2022-09-20T10:50:09Z,42.805,6.029,13.3065,4.60103,2470.53,2022-9-20T12:52:02Z
2022-09-20T10:53:13Z,42.805,6.029,13.3035,4.60113,2470.567,2022-9-20T12:55:05Z
2022-09-20T10:56:16Z,42.805,6.029,13.3060,4.60087,2470.591,2022-9-20T12:58:09Z
2022-09-20T10:59:19Z,42.805,6.029,13.3069,4.60135,2470.591,2022-9-20T13:01:12Z
2022-09-20T11:02:22Z,42.805,6.029,13.3035,4.60136,2470.567,2022-9-20T13:04:15Z
2022-09-20T11:05:25Z,42.805,6.029,13.3054,4.60151,2470.591,2022-9-20T13:07:18Z
2022-09-20T11:08:28Z,42.805,6.029,13.3048,4.60115,2470.577,2022-9-20T13:10:21Z
2022-09-20T11:11:31Z,42.805,6.029,13.3053,4.60127,2470.553,2022-9-20T13:13:24Z
2022-09-20T11:14:34Z,42.805,6.029,13.3056,4.60119,2470.567,2022-9-20T13:16:27Z
2022-09-20T11:17:38Z,42.805,6.029,13.3038,4.60110,2470.577,2022-9-20T13:19:30Z
2022-09-20T11:20:41Z,42.805,6.029,13.3043,4.60097,2470.591,2022-9-20T13:22:34Z
2022-09-20T11:23:44Z,42.805,6.029,13.3046,4.60119,2470.577,2022-9-20T13:25:37Z
2022-09-20T11:26:47Z,42.805,6.029,13.3050,4.60092,2470.553,2022-9-20T13:28:40Z
2022-09-20T11:29:50Z,42.805,6.029,13.3069,4.60099,2470.6,2022-9-20T13:31:43Z
2022-09-20T11:32:53Z,42.805,6.029,13.3081,4.60142,2470.614,2022-9-20T13:34:46Z
2022-09-20T11:35:56Z,42.805,6.029,13.3056,4.60141,2470.553,2022-9-20T13:37:49Z
2022-09-20T11:39:00Z,42.805,6.029,13.3066,4.60130,2470.577,2022-9-20T13:40:52Z
2022-09-20T11:42:03Z,42.805,6.029,13.3055,4.60117,2470.577,2022-9-20T13:43:55Z
2022-09-20T11:45:06Z,42.805,6.029,13.3043,4.60140,2470.577,2022-9-20T13:46:59Z
2022-09-20T11:48:09Z,42.805,6.029,13.3056,4.60127,2470.553,2022-9-20T13:50:02Z
2022-09-20T11:51:12Z,42.805,6.029,13.3060,4.60110,2470.614,2022-9-20T13:53:05Z
2022-09-20T11:54:15Z,42.805,6.029,13.3034,4.60130,2470.614,2022-9-20T13:56:08Z
2022-09-20T11:57:18Z,42.805,6.029,13.3067,4.60129,2470.591,2022-9-20T13:59:11Z
2022-09-20T12:00:21Z,42.805,6.029,13.3078,4.60119,2470.591,2022-9-20T14:02:14Z
2022-09-20T12:03:24Z,42.805,6.029,13.3074,4.60160,2470.577,2022-9-20T14:05:17Z
2022-09-20T12:06:28Z,42.805,6.029,13.3091,4.60130,2470.637,2022-9-20T14:08:20Z
2022-09-20T12:09:31Z,42.805,6.029,13.3096,4.60138,2470.591,2022-9-20T14:11:24Z
2022-09-20T12:12:34Z,42.805,6.029,13.3092,4.60106,2470.6,2022-9-20T14:14:27Z
2022-09-20T12:15:37Z,42.805,6.029,13.3103,4.60117,2470.6,2022-9-20T14:17:30Z
2022-09-20T12:18:40Z,42.805,6.029,13.3101,4.60114,2470.591,2022-9-20T14:20:33Z
2022-09-20T12:21:43Z,42.805,6.029,13.3097,4.60103,2470.6,2022-9-20T14:23:36Z
2022-09-20T12:24:46Z,42.805,6.029,13.3081,4.60085,2470.6,2022-9-20T14:26:39Z
2022-09-20T12:27:50Z,42.805,6.029,13.3074,4.60126,2470.614,2022-9-20T14:29:42Z
2022-09-20T12:30:53Z,42.805,6.029,13.3091,4.60098,2470.614,2022-9-20T14:32:46Z
2022-09-20T12:33:56Z,42.805,6.029,13.3062,4.60121,2470.637,2022-9-20T14:35:49Z
2022-09-20T12:36:59Z,42.805,6.029,13.3060,4.60122,2470.591,2022-9-20T14:38:52Z
2022-09-20T12:40:02Z,42.805,6.029,13.3061,4.60140,2470.591,2022-9-20T14:41:55Z
2022-09-20T12:43:05Z,42.805,6.029,13.3051,4.60113,2470.614,2022-9-20T14:44:58Z
2022-09-20T12:46:08Z,42.805,6.029,13.3077,4.60137,2470.624,2022-9-20T14:48:01Z
2022-09-20T12:49:11Z,42.805,6.029,13.3068,4.60117,2470.614,2022-9-20T14:51:04Z
2022-09-20T12:52:15Z,42.805,6.029,13.3082,4.60136,2470.624,2022-9-20T14:54:07Z
2022-09-20T12:55:18Z,42.805,6.029,13.3074,4.60110,2470.591,2022-9-20T14:57:11Z
2022-09-20T12:58:21Z,42.805,6.029,13.3060,4.60119,2470.6,2022-9-20T15:00:14Z
2022-09-20T13:01:24Z,42.805,6.029,13.3064,4.60104,2470.614,2022-9-20T15:03:17Z
2022-09-20T13:04:27Z,42.805,6.029,13.3065,4.60074,2470.6,2022-9-20T15:06:20Z
2022-09-20T13:07:30Z,42.805,6.029,13.3089,4.60106,2470.577,2022-9-20T15:09:23Z
2022-09-20T13:10:33Z,42.805,6.029,13.3054,4.60082,2470.6,2022-9-20T15:12:26Z
2022-09-20T13:13:36Z,42.805,6.029,13.3078,4.60131,2470.6,2022-9-20T15:15:29Z
2022-09-20T13:16:40Z,42.805,6.029,13.3074,4.60119,2470.614,2022-9-20T15:18:32Z
2022-09-20T13:19:43Z,42.805,6.029,13.3091,4.60087,2470.567,2022-9-20T15:21:36Z
2022-09-20T13:22:46Z,42.805,6.029,13.3085,4.60097,2470.624,2022-9-20T15:24:39Z
2022-09-20T13:25:49Z,42.805,6.029,13.3084,4.60113,2470.6,2022-9-20T15:27:42Z
2022-09-20T13:28:52Z,42.805,6.029,13.3082,4.60107,2470.6,2022-9-20T15:30:45Z
2022-09-20T13:31:55Z,42.805,6.029,13.3092,4.60135,2470.637,2022-9-20T15:33:48Z
2022-09-20T13:34:58Z,42.805,6.029,13.3106,4.60104,2470.624,2022-9-20T15:36:51Z
2022-09-20T13:38:01Z,42.805,6.029,13.3112,4.60119,2470.614,2022-9-20T15:39:54Z
2022-09-20T13:41:05Z,42.805,6.029,13.3071,4.60096,2470.624,2022-9-20T15:42:57Z
2022-09-20T13:44:08Z,42.805,6.029,13.3068,4.60109,2470.624,2022-9-20T15:46:01Z
2022-09-20T13:47:11Z,42.805,6.029,13.3067,4.60161,2470.614,2022-9-20T15:49:04Z
2022-09-20T13:50:14Z,42.805,6.029,13.3081,4.60135,2470.637,2022-9-20T15:52:07Z
2022-09-20T13:53:17Z,42.805,6.029,13.3084,4.60087,2470.614,2022-9-20T15:55:10Z
2022-09-20T13:56:20Z,42.805,6.029,13.3086,4.60080,2470.6,2022-9-20T15:58:13Z
2022-09-20T13:59:23Z,42.805,6.029,13.3054,4.60097,2470.624,2022-9-20T16:01:16Z
2022-09-20T14:02:26Z,42.805,6.029,13.3051,4.60108,2470.624,2022-9-20T16:04:19Z
2022-09-20T14:05:30Z,42.805,6.029,13.3067,4.60081,2470.661,2022-9-20T16:07:22Z
2022-09-20T14:08:33Z,42.805,6.029,13.3093,4.60082,2470.637,2022-9-20T16:10:26Z
2022-09-20T14:11:36Z,42.805,6.029,13.3059,4.60076,2470.637,2022-9-20T16:13:29Z
2022-09-20T14:14:39Z,42.805,6.029,13.3091,4.60080,2470.624,2022-9-20T16:16:32Z
2022-09-20T14:17:42Z,42.805,6.029,13.3068,4.60084,2470.624,2022-9-20T16:19:35Z
2022-09-20T14:20:45Z,42.805,6.029,13.3073,4.60097,2470.637,2022-9-20T16:22:38Z
2022-09-20T14:23:48Z,42.805,6.029,13.3085,4.60099,2470.614,2022-9-20T16:25:41Z
2022-09-20T14:26:51Z,42.805,6.029,13.3076,4.60100,2470.637,2022-9-20T16:28:44Z
2022-09-20T14:29:55Z,42.805,6.029,13.3066,4.60093,2470.646,2022-9-20T16:31:47Z
2022-09-20T14:32:58Z,42.805,6.029,13.3063,4.60092,2470.637,2022-9-20T16:34:51Z
2022-09-20T14:36:01Z,42.805,6.029,13.3063,4.60125,2470.646,2022-9-20T16:37:54Z
2022-09-20T14:39:04Z,42.805,6.029,13.3051,4.60132,2470.661,2022-9-20T16:40:57Z
2022-09-20T14:42:07Z,42.805,6.029,13.3084,4.60111,2470.646,2022-9-20T16:44:00Z
2022-09-20T14:45:10Z,42.805,6.029,13.3066,4.60096,2470.646,2022-9-20T16:47:03Z
2022-09-20T14:48:13Z,42.805,6.029,13.3063,4.60079,2470.67,2022-9-20T16:50:06Z
2022-09-20T14:51:16Z,42.805,6.029,13.3070,4.60085,2470.646,2022-9-20T16:53:09Z
2022-09-20T14:54:20Z,42.805,6.029,13.3066,4.60081,2470.661,2022-9-20T16:56:12Z
2022-09-20T14:57:23Z,42.805,6.029,13.3066,4.60120,2470.661,2022-9-20T16:59:16Z
2022-09-20T15:00:26Z,42.805,6.029,13.3077,4.60123,2470.646,2022-9-20T17:02:19Z
2022-09-20T15:03:29Z,42.805,6.029,13.3054,4.60107,2470.661,2022-9-20T17:05:22Z
2022-09-20T15:06:32Z,42.805,6.029,13.3060,4.60092,2470.67,2022-9-20T17:08:25Z
2022-09-20T15:09:35Z,42.805,6.029,13.3100,4.60086,2470.67,2022-9-20T17:11:28Z
2022-09-20T15:12:38Z,42.805,6.029,13.3096,4.60101,2470.646,2022-9-20T17:14:31Z